TimeAWST,TemperatureF,Dew PointF,Humidity,Sea Level PressureIn,VisibilityMPH,Wind Direction,Wind SpeedMPH,Gust SpeedMPH,PrecipitationIn,Events,Conditions,WindDirDegrees,DateUTC
12:00 AM,82,64,44,29.85,,West,9.2,,,,,260,2012-11-11 16:00:00
12:00 AM,82.4,64.4,54,29.89,-9999.0,West,9.2,-,N/A,,Unknown,260,2012-11-11 16:00:00
1:00 AM,80.6,64.4,58,29.89,-9999.0,North,4.6,-,N/A,,Unknown,350,2012-11-11 17:00:00
2:00 AM,79,63,49,29.82,,North,6.9,,,,,0,2012-11-11 18:00:00
3:00 AM,77.0,62.6,61,29.86,-9999.0,North,5.8,-,N/A,,Unknown,360,2012-11-11 19:00:00
4:00 AM,77.0,62.6,61,29.86,-9999.0,North,4.6,-,N/A,,Unknown,350,2012-11-11 20:00:00
5:00 AM,77,63,53,29.83,,West,6.9,,,,,260,2012-11-11 21:00:00
5:00 AM,77.0,62.6,61,29.89,-9999.0,West,6.9,-,N/A,,Unknown,260,2012-11-11 21:00:00
6:00 AM,78,64,54,29.84,,NNW,5.8,,,,,330,2012-11-11 22:00:00
6:00 AM,78.8,64.4,61,29.89,-9999.0,NNW,5.8,-,N/A,,Unknown,330,2012-11-11 22:00:00
7:00 AM,82.4,64.4,54,29.92,-9999.0,SE,8.1,-,N/A,,Unknown,130,2012-11-11 23:00:00
8:00 AM,87,59,29,29.89,,East,11.5,,,,,90,2012-11-12 00:00:00
8:00 AM,87.8,59.0,38,29.95,-9999.0,East,11.5,-,N/A,,Unknown,90,2012-11-12 00:00:00
9:00 AM,92,55,20,29.89,,ESE,9.2,,,,,120,2012-11-12 01:00:00
9:00 AM,93.2,55.4,28,29.95,-9999.0,ESE,9.2,-,N/A,,Unknown,120,2012-11-12 01:00:00
11:00 AM,97,54,15,29.85,,ENE,11.5,,,,,70,2012-11-12 03:00:00
11:00 AM,96.8,53.6,23,29.89,-9999.0,ENE,11.5,-,N/A,,Unknown,70,2012-11-12 03:00:00
12:00 PM,99,57,16,29.82,,NE,10.4,,,,,40,2012-11-12 04:00:00
12:00 PM,98.6,57.2,25,29.86,-9999.0,NE,10.4,-,N/A,,Unknown,40,2012-11-12 04:00:00
1:00 PM,98.6,55.4,24,29.86,-9999.0,ENE,9.2,-,N/A,,Unknown,70,2012-11-12 05:00:00
2:00 PM,101,55,13,29.77,,NNW,12.7,,,,,340,2012-11-12 06:00:00
2:00 PM,100.4,55.4,22,29.83,-9999.0,NNW,12.7,-,N/A,,Unknown,340,2012-11-12 06:00:00
3:00 PM,92,57,21,29.79,,ESE,17.3,,,,,120,2012-11-12 07:00:00
3:00 PM,93.2,57.2,30,29.83,-9999.0,ESE,17.3,-,N/A,,Unknown,120,2012-11-12 07:00:00
4:00 PM,82.4,60.8,48,29.86,-9999.0,SE,21.9,-,N/A,,Unknown,130,2012-11-12 08:00:00
4:20 PM,84.2,57.2,40,29.86,-9999.0,East,23.0,-,N/A,,Unknown,90,2012-11-12 08:20:00
4:22 PM,84.2,57.2,40,29.86,-9999.0,East,21.9,33.4,N/A,,Unknown,90,2012-11-12 08:22:00
5:00 PM,83,61,37,29.83,,East,20.7,,,,,80,2012-11-12 09:00:00
5:00 PM,84.2,60.8,45,29.89,-9999.0,East,20.7,-,N/A,,Unknown,80,2012-11-12 09:00:00
6:00 PM,85,58,29,29.82,,East,15.0,,,,,80,2012-11-12 10:00:00
6:00 PM,84.2,57.2,40,29.86,-9999.0,East,15.0,-,N/A,,Unknown,80,2012-11-12 10:00:00
7:00 PM,84.2,55.4,37,29.89,-9999.0,East,6.9,-,N/A,,Unknown,80,2012-11-12 11:00:00
8:00 PM,87,56,24,29.83,,SSW,4.6,,,,,200,2012-11-12 12:00:00
8:00 PM,86.0,55.4,35,29.89,-9999.0,SSW,4.6,-,N/A,,Unknown,200,2012-11-12 12:00:00
9:00 PM,81,61,41,29.89,,South,17.3,,,,,180,2012-11-12 13:00:00
9:00 PM,80.6,60.8,51,29.95,-9999.0,South,17.3,-,N/A,,Unknown,180,2012-11-12 13:00:00
10:00 PM,80.6,60.8,51,29.95,-9999.0,SSE,17.3,-,N/A,,Unknown,160,2012-11-12 14:00:00
11:00 PM,82,56,30,29.89,,SSE,15.0,,,,,160,2012-11-12 15:00:00
11:00 PM,82.4,55.4,39,29.95,-9999.0,SSE,15.0,-,N/A,,Unknown,160,2012-11-12 15:00:00